When you browse on this site, cookies collect data to enhance your experience and personalize the content and advertising you see.
Visit our Privacy Policy to learn more. By continuing to use the site, you agree to this use of cookies and data.
  • In Slovakia
  • List of Countries
  • For 7 days
  • Water Temperature
  • Satellite Maps
  • Weather Map
  • Weather Widgets
  • user-avatar
    Login

    Hourly Weather Nashavar

    Today, 11 December, Tuesday

    Time Temperature Precipitation Wind Pressure Humidity
    00:00 +13°C° 0 mm 1 mps 733 mmHg 64%
    01:00 +12°C° 0 mm 2 mps 734 mmHg 64%
    02:00 +12°C° 0 mm 2 mps 734 mmHg 64%
    03:00 +12°C° 0 mm 2 mps 734 mmHg 63%
    04:00 +12°C° 0 mm 2 mps 733 mmHg 62%
    05:00 +12°C° 0 mm 1 mps 732 mmHg 63%
    06:00 +12°C° 0.1 mm 2 mps 733 mmHg 61%
    07:00 +12°C° 0.1 mm 2 mps 733 mmHg 59%
    08:00 +12°C° 0.1 mm 2 mps 733 mmHg 57%
    09:00 +14°C° 0.1 mm 2 mps 733 mmHg 51%
    10:00 +15°C° 0.1 mm 2 mps 734 mmHg 46%
    11:00 +16°C° 0.1 mm 2 mps 734 mmHg 41%
    12:00 +17°C° 0.1 mm 2 mps 733 mmHg 39%
    13:00 +17°C° 0.1 mm 2 mps 733 mmHg 38%
    14:00 +18°C° 0.1 mm 3 mps 733 mmHg 37%
    15:00 +17°C° 0 mm 2 mps 733 mmHg 38%
    16:00 +16°C° 0 mm 2 mps 732 mmHg 40%
    17:00 +16°C° 0 mm 2 mps 732 mmHg 41%
    18:00 +14°C° 0 mm 3 mps 733 mmHg 43%
    19:00 +14°C° 0 mm 3 mps 733 mmHg 44%
    20:00 +13°C° 0 mm 3 mps 734 mmHg 46%
    21:00 +13°C° 0 mm 3 mps 734 mmHg 46%
    22:00 +12°C° 0 mm 3 mps 734 mmHg 46%
    23:00 +12°C° 0 mm 3 mps 734 mmHg 47%

    Tomorrow, 12 December, Wednesday

    Time Temperature Precipitation Wind Pressure Humidity
    00:00 +12°C° 0 mm 3 mps 734 mmHg 47%
    01:00 +12°C° 0 mm 3 mps 734 mmHg 47%
    02:00 +11°C° 0 mm 3 mps 733 mmHg 47%
    03:00 +11°C° 0 mm 3 mps 733 mmHg 47%
    04:00 +11°C° 0 mm 3 mps 734 mmHg 47%
    05:00 +10°C° 0 mm 3 mps 734 mmHg 47%
    06:00 +10°C° 0 mm 3 mps 734 mmHg 46%
    07:00 +10°C° 0 mm 3 mps 734 mmHg 45%
    08:00 +10°C° 0 mm 2 mps 735 mmHg 45%
    09:00 +12°C° 0 mm 3 mps 735 mmHg 39%
    10:00 +14°C° 0 mm 3 mps 735 mmHg 34%
    11:00 +16°C° 0 mm 3 mps 735 mmHg 28%
    12:00 +17°C° 0 mm 3 mps 735 mmHg 26%
    13:00 +18°C° 0 mm 3 mps 734 mmHg 24%
    14:00 +18°C° 0 mm 3 mps 734 mmHg 23%
    15:00 +18°C° 0 mm 3 mps 734 mmHg 25%
    16:00 +17°C° 0 mm 2 mps 734 mmHg 26%
    17:00 +16°C° 0 mm 2 mps 734 mmHg 28%
    18:00 +15°C° 0 mm 2 mps 734 mmHg 30%
    19:00 +15°C° 0 mm 2 mps 735 mmHg 31%
    20:00 +14°C° 0 mm 2 mps 735 mmHg 33%
    21:00 +13°C° 0 mm 2 mps 736 mmHg 33%
    22:00 +13°C° 0 mm 2 mps 736 mmHg 33%
    23:00 +13°C° 0 mm 2 mps 736 mmHg 33%

    Day after tomorrow, 13 December, Thursday

    Time Temperature Precipitation Wind Pressure Humidity
    00:00 +12°C° 0 mm 2 mps 736 mmHg 32%
    01:00 +12°C° 0 mm 2 mps 736 mmHg 32%
    02:00 +12°C° 0 mm 2 mps 736 mmHg 31%
    03:00 +10°C° 0 mm 2 mps 736 mmHg 31%
    04:00 +10°C° 0 mm 2 mps 735 mmHg 30%
    05:00 +10°C° 0 mm 2 mps 735 mmHg 29%
    06:00 +10°C° 0 mm 2 mps 736 mmHg 29%
    07:00 +10°C° 0 mm 2 mps 736 mmHg 28%
    08:00 +10°C° 0 mm 2 mps 736 mmHg 28%
    09:00 +13°C° 0 mm 2 mps 736 mmHg 24%
    10:00 +15°C° 0 mm 2 mps 736 mmHg 21%
    11:00 +16°C° 0 mm 2 mps 736 mmHg 17%
    12:00 +17°C° 0 mm 2 mps 736 mmHg 16%
    13:00 +18°C° 0 mm 2 mps 735 mmHg 15%
    14:00 +19°C° 0 mm 2 mps 735 mmHg 14%
    15:00 +18°C° 0 mm 2 mps 735 mmHg 16%
    16:00 +18°C° 0 mm 1 mps 735 mmHg 18%
    17:00 +16°C° 0 mm 1 mps 735 mmHg 19%
    18:00 +15°C° 0 mm 1 mps 735 mmHg 20%
    19:00 +14°C° 0 mm 1 mps 736 mmHg 20%
    20:00 +14°C° 0 mm 1 mps 736 mmHg 20%
    21:00 +13°C° 0 mm 2 mps 736 mmHg 20%
    22:00 +13°C° 0 mm 2 mps 736 mmHg 20%
    23:00 +12°C° 0 mm 2 mps 736 mmHg 19%

    14 December, Friday

    Time Temperature Precipitation Wind Pressure Humidity
    00:00 +12°C° 0 mm 2 mps 736 mmHg 19%
    01:00 +12°C° 0 mm 1 mps 736 mmHg 18%
    02:00 +11°C° 0 mm 1 mps 735 mmHg 17%
    03:00 +11°C° 0 mm 1 mps 735 mmHg 17%
    04:00 +11°C° 0 mm 1 mps 735 mmHg 17%
    05:00 +10°C° 0 mm 1 mps 735 mmHg 16%
    06:00 +11°C° 0 mm 1 mps 736 mmHg 17%
    07:00 +11°C° 0 mm 1 mps 736 mmHg 17%
    08:00 +11°C° 0 mm 1 mps 736 mmHg 17%
    09:00 +13°C° 0 mm 1 mps 736 mmHg 15%
    10:00 +15°C° 0 mm 1 mps 736 mmHg 13%
    11:00 +18°C° 0 mm 1 mps 736 mmHg 11%
    12:00 +19°C° 0 mm 1 mps 736 mmHg 11%
    13:00 +19°C° 0 mm 1 mps 736 mmHg 11%
    14:00 +20°C° 0 mm 1 mps 735 mmHg 10%
    15:00 +19°C° 0 mm 1 mps 735 mmHg 12%
    16:00 +18°C° 0 mm 1 mps 735 mmHg 15%
    17:00 +16°C° 0 mm 1 mps 735 mmHg 17%
    18:00 +15°C° 0 mm 1 mps 736 mmHg 17%
    19:00 +14°C° 0 mm 1 mps 736 mmHg 17%
    20:00 +14°C° 0 mm 1 mps 737 mmHg 17%
    21:00 +13°C° 0 mm 1 mps 737 mmHg 17%
    22:00 +13°C° 0 mm 1 mps 737 mmHg 17%
    23:00 +13°C° 0 mm 1 mps 737 mmHg 17%

    15 December, Saturday

    Time Temperature Precipitation Wind Pressure Humidity
    00:00 +12°C° 0 mm 1 mps 736 mmHg 16%
    01:00 +12°C° 0 mm 1 mps 736 mmHg 16%
    02:00 +12°C° 0 mm 1 mps 736 mmHg 15%
    03:00 +11°C° 0 mm 1 mps 736 mmHg 15%
    04:00 +11°C° 0 mm 1 mps 735 mmHg 15%
    05:00 +11°C° 0 mm 1 mps 735 mmHg 15%
    06:00 +11°C° 0 mm 1 mps 735 mmHg 15%
    07:00 +11°C° 0 mm 1 mps 736 mmHg 15%
    08:00 +11°C° 0 mm 1 mps 736 mmHg 16%
    09:00 +13°C° 0 mm 1 mps 736 mmHg 14%
    10:00 +16°C° 0 mm 1 mps 736 mmHg 12%
    11:00 +19°C° 0 mm 1 mps 736 mmHg 10%
    12:00 +20°C° 0 mm 1 mps 736 mmHg 10%
    13:00 +21°C° 0 mm 1 mps 736 mmHg 10%
    14:00 +21°C° 0 mm 1 mps 735 mmHg 10%
    15:00 +20°C° 0 mm 1 mps 735 mmHg 12%
    16:00 +17°C° 0 mm 0 mps 735 mmHg 15%
    17:00 +15°C° 0 mm 0 mps 735 mmHg 17%
    18:00 +15°C° 0 mm 0 mps 736 mmHg 17%
    19:00 +15°C° 0 mm 1 mps 736 mmHg 17%
    20:00 +14°C° 0 mm 1 mps 737 mmHg 17%
    21:00 +14°C° 0 mm 1 mps 737 mmHg 17%
    22:00 +14°C° 0 mm 1 mps 737 mmHg 17%
    23:00 +13°C° 0 mm 1 mps 737 mmHg 17%

    16 December, Sunday

    Time Temperature Precipitation Wind Pressure Humidity
    00:00 +13°C° 0 mm 1 mps 737 mmHg 17%
    01:00 +13°C° 0 mm 2 mps 737 mmHg 17%
    02:00 +12°C° 0 mm 2 mps 736 mmHg 17%
    03:00 +12°C° 0 mm 2 mps 736 mmHg 16%
    04:00 +12°C° 0 mm 2 mps 736 mmHg 16%
    05:00 +10°C° 0 mm 2 mps 736 mmHg 16%
    06:00 +12°C° 0 mm 2 mps 736 mmHg 16%
    07:00 +12°C° 0 mm 2 mps 737 mmHg 16%
    08:00 +12°C° 0 mm 2 mps 737 mmHg 15%
    09:00 +14°C° 0 mm 2 mps 737 mmHg 13%
    10:00 +17°C° 0 mm 2 mps 737 mmHg 11%
    11:00 +19°C° 0 mm 2 mps 737 mmHg 9%
    12:00 +20°C° 0 mm 2 mps 736 mmHg 9%
    13:00 +21°C° 0 mm 2 mps 736 mmHg 8%
    14:00 +23°C° 0 mm 2 mps 735 mmHg 7%
    15:00 +20°C° 0 mm 2 mps 735 mmHg 9%
    16:00 +19°C° 0 mm 2 mps 734 mmHg 11%
    17:00 +17°C° 0 mm 2 mps 734 mmHg 12%
    18:00 +17°C° 0 mm 2 mps 734 mmHg 12%
    19:00 +16°C° 0 mm 2 mps 735 mmHg 12%
    20:00 +15°C° 0 mm 2 mps 735 mmHg 12%
    21:00 +15°C° 0 mm 2 mps 735 mmHg 12%
    22:00 +14°C° 0 mm 2 mps 735 mmHg 12%
    23:00 +14°C° 0 mm 2 mps 735 mmHg 12%
    Show more